Hattiesburg, MS

12:19 PM CDT on July 22, 2017 (GMT -0500)
Chain Municipal

Weather History for KHBG - December, 2012

Change the Weather History Date:

Thursday, December 20, 2012

  Actual Average Record
Temperature  
Mean Temperature 58 °F 50 °F  
Max Temperature 73 °F 61 °F 80 °F (1951)
Min Temperature 43 °F 39 °F 16 °F (1996)
Degree Days  
Heating Degree Days 7 15  
Month to date heating degree days 129 282  
Since 1 July heating degree days 514 610  
Cooling Degree Days 0 0  
Month to date cooling degree days 19 12  
Year to date cooling degree days 2733 2402  
Growing Degree Days 9 (Base 50)    
Moisture  
Dew Point 47 °F    
Average Humidity 64    
Maximum Humidity 93    
Minimum Humidity 35    
Precipitation  
Precipitation 0.28 in 0.15 in 2.74 in (1971)
Month to date precipitation 3.05 3.20  
Year to date precipitation 63.89 57.46  
Sea Level Pressure  
Sea Level Pressure 29.94 in    
Wind  
Wind Speed 14 mph (West)    
Max Wind Speed 32 mph    
Max Gust Speed 44 mph    
Visibility 9 miles    
Events Rain    
T = Trace of Precipitation, MM = Missing Value Source: NWS Daily Summary

Daily Weather History Graph

Daily Weather History Graph

Search for Another Location

Airport or City:

Trip Planner

Search our weather history database for the weather conditions in past years. The results will help you decide how hot, cold, wet, or windy it might be!

Date:

Astronomy

Dec. 20, 2012 Rise Set
Actual Time 6:51 AM CST 4:58 PM CST
Civil Twilight 6:24 AM CST 5:25 PM CST
Nautical Twilight 5:54 AM CST 5:55 PM CST
Astronomical Twilight 5:24 AM CST 6:25 PM CST
Moon 11:58 AM CST (12/20) No Moon Set
Length of Visible Light 11h 00m
Length of Day
10h 06m
First Quarter, 55% of the Moon is Illuminated
Dec 20
First Quarter
Dec 28
Full
Jan 4
Last Quarter
Jan 11
New
Jan 18
First Quarter

Hourly Weather History & Observations

Time (CST) Temp. Windchill Dew Point Humidity Pressure Visibility Wind Dir Wind Speed Gust Speed Precip Events Conditions
12:39 AM 66.2 °F - 64.4 °F 94% 29.84 in 4.0 mi SSE 9.2 mph - 0.03 in Rain Rain
12:53 AM 66.9 °F - 64.9 °F 93% 29.83 in 6.0 mi SSE 10.4 mph - 0.08 in Rain Rain
1:35 AM 71.6 °F - 68.0 °F 88% 29.84 in 7.0 mi SSW 13.8 mph - 0.03 in Rain Light Rain
1:53 AM 72.0 °F - 68.0 °F 87% 29.83 in 10.0 mi South 12.7 mph 18.4 mph 0.03 in Rain Light Rain
2:53 AM 72.0 °F - 68.0 °F 87% 29.82 in 10.0 mi SSW 12.7 mph 21.9 mph 0.00 in   Overcast
3:53 AM 72.0 °F - 69.1 °F 91% 29.81 in 10.0 mi SSW 12.7 mph - 0.08 in   Overcast
4:22 AM 71.6 °F - 69.8 °F 94% 29.81 in 8.0 mi SSW 13.8 mph 25.3 mph 0.00 in Rain Light Rain
4:53 AM 72.0 °F - 68.0 °F 87% 29.80 in 10.0 mi SSW 10.4 mph 19.6 mph 0.01 in   Mostly Cloudy
5:09 AM 71.6 °F - 68.0 °F 88% 29.80 in 10.0 mi SSW 12.7 mph - N/A   Overcast
5:53 AM 73.0 °F - 68.0 °F 84% 29.79 in 10.0 mi SSW 11.5 mph 21.9 mph N/A   Overcast
6:24 AM 73.4 °F - 68.0 °F 83% 29.80 in 10.0 mi SSW 13.8 mph 23.0 mph 0.00 in   Mostly Cloudy
6:53 AM 73.0 °F - 68.0 °F 84% 29.79 in 6.0 mi SSW 20.7 mph 32.2 mph 0.01 in Rain Light Rain
7:07 AM 71.6 °F - 64.4 °F 78% 29.80 in 4.0 mi WSW 23.0 mph 40.3 mph 0.06 in Rain Heavy Rain
7:53 AM 60.1 °F - 46.9 °F 62% 29.88 in 9.0 mi WNW 20.7 mph 42.6 mph 0.06 in Rain Light Rain
7:56 AM 59.0 °F - 46.4 °F 63% 29.89 in 9.0 mi WNW 15.0 mph 31.1 mph 0.00 in Rain Light Rain
8:03 AM 57.2 °F - 46.4 °F 67% 29.89 in 7.0 mi WNW 15.0 mph 23.0 mph 0.01 in Rain Rain
8:53 AM 57.0 °F - 43.0 °F 59% 29.91 in 10.0 mi WNW 13.8 mph - 0.01 in   Overcast
9:53 AM 57.9 °F - 45.0 °F 62% 29.93 in 10.0 mi West 11.5 mph - N/A   Mostly Cloudy
10:53 AM 61.0 °F - 43.0 °F 52% 29.91 in 10.0 mi WNW 12.7 mph 21.9 mph N/A   Clear
11:53 AM 63.0 °F - 37.9 °F 40% 29.91 in 10.0 mi WNW 21.9 mph 28.8 mph N/A   Clear
12:53 PM 59.0 °F - 33.1 °F 38% 29.93 in 10.0 mi WNW 19.6 mph 32.2 mph N/A   Clear
1:53 PM 59.0 °F - 32.0 °F 36% 29.95 in 10.0 mi NW 18.4 mph 28.8 mph N/A   Clear
2:53 PM 57.0 °F - 30.0 °F 36% 29.97 in 10.0 mi WNW 21.9 mph 31.1 mph N/A   Clear
3:53 PM 55.9 °F - 28.0 °F 34% 30.02 in 10.0 mi NW 17.3 mph 29.9 mph N/A   Clear
4:53 PM 53.1 °F - 28.9 °F 40% 30.06 in 10.0 mi NW 15.0 mph 24.2 mph N/A   Clear
5:53 PM 50.0 °F - 28.9 °F 44% 30.11 in 10.0 mi WNW 10.4 mph - N/A   Clear
6:53 PM 48.9 °F - 28.9 °F 46% 30.15 in 10.0 mi WNW 13.8 mph - N/A   Clear
7:53 PM 48.9 °F - 28.0 °F 44% 30.19 in 10.0 mi WNW 16.1 mph 24.2 mph N/A   Clear
8:53 PM 48.0 °F - 26.1 °F 42% 30.22 in 10.0 mi WNW 11.5 mph 23.0 mph N/A   Clear
9:53 PM 46.0 °F 41.0 °F 26.1 °F 46% 30.23 in 10.0 mi WNW 10.4 mph - N/A   Clear
10:53 PM 45.0 °F 40.6 °F 21.9 °F 40% 30.25 in 10.0 mi WNW 8.1 mph - N/A   Clear
11:53 PM 43.0 °F 36.8 °F 21.9 °F 43% 30.26 in 10.0 mi NW 11.5 mph - N/A   Clear